Content
SEND FEEDBACK

Daily
Averages
Monthly
Summary
United States of America

BEDFORD PARK, ILLINOIS


Home > North America > United States > Illinois
Elevation: 623 feet     Latitude: 41 46N     Longitude: 087 45W

WEATHER
 
SELECT A DAY
Number of Records: 192,321;   Date Range: 1/1/95 - 10/21/14
 
SHARE

PRINT THIS DATA

[ ← Previous Day ]
WEATHER ALMANAC - JANUARY 24, 2013
[ Next Day → ]
[ °C ]   °F
Weather ElementAverageHighLow
Temperature15 °F21 °F (2:51 pm)7 °F (4:51 am)
Dewpoint0.5 °F8.6 °F (11:44 am)-5.1 °F (3:51 am)
Humidity53.7 %70 % (11:51 am)33 % (3:51 pm)
Barometer30.57 in30.68 in (10:51 am)30.44 in (10:51 pm)
Wind Speed9.7 mph18.4 mph (2:51 am)
Weather ElementAverage
Visibility9.6 mi
Wind DirectionSSW (218.8 °)

Weather ElementTotal
Precipitation---
Heating Degree Days51 (Base 65)
Averaged from 25 records on January 24, 2013
WEATHER CONDITIONS BREAKOUT
WIND DIRECTION BREAKOUT
WEATHER BY HOUR - JANUARY 24, 2013
[ °C ]   °F
Local TimeTemperatureDewpointHumidityBarometerVisibilityWind DirectionWind SpeedGust SpeedPrecipitationEventsConditions
1:51 AM10.0 °F-2.9 °F56 %30.47 in10.0 miNW (320°)16.1 mphScattered Clouds
2:51 AM9.0 °F-4.0 °F56 %30.50 in10.0 miNW (320°)18.4 mphPartly Cloudy
3:51 AM8.1 °F-5.1 °F55 %30.52 in10.0 miNW (320°)16.1 mphPartly Cloudy
4:51 AM7.0 °F-5.1 °F58 %30.56 in10.0 miNW (320°)12.7 mphMostly Cloudy
5:51 AM7.0 °F-4.0 °F61 %30.59 in10.0 miNW (320°)15.0 mphOvercast
6:51 AM7.0 °F-4.0 °F61 %30.60 in10.0 miNNW (330°)15.0 mphOvercast
7:51 AM7.0 °F-2.9 °F64 %30.62 in10.0 miNNW (330°)12.7 mphOvercast
8:51 AM10.0 °F-0.9 °F61 %30.66 in10.0 miNW (320°)10.4 mphOvercast
9:51 AM12.0 °F1.0 °F61 %30.67 in10.0 miNNW (340°)9.2 mphOvercast
10:28 AM14.0 °F3.2 °F62 %30.62 in6.0 miNorth (360°)3.5 mph0.00 inSnowLight Snow
10:51 AM14.0 °F5.0 °F67 %30.68 in5.0 miCalm0.00 inSnowLight Snow
11:44 AM17.6 °F8.6 °F68 %30.59 in10.0 miWNW (290°)6.9 mph0.00 inOvercast
11:51 AM15.1 °F7.0 °F70 %30.66 in10.0 miWNW (290°)6.9 mph0.00 inOvercast
12:51 PM18.0 °F7.0 °F62 %30.63 in10.0 miSouth (190°)3.5 mphOvercast
1:51 PM19.9 °F3.9 °F50 %30.61 in10.0 miSE (140°)5.8 mphOvercast
2:51 PM21.0 °F1.0 °F42 %30.61 in10.0 miSouth (170°)3.5 mphOvercast
3:51 PM21.0 °F-4.0 °F33 %30.59 in10.0 miESE (110°)11.5 mphOvercast
4:51 PM19.9 °F-2.0 °F38 %30.57 in10.0 miESE (120°)9.2 mphOvercast
5:51 PM19.9 °F-2.0 °F38 %30.56 in10.0 miESE (120°)10.4 mphOvercast
6:51 PM19.4 °F-0.4 °F42 %30.48 in10.0 miESE (110°)9.2 mphOvercast
7:51 PM19.0 °F1.9 °F47 %30.52 in10.0 miESE (120°)9.2 mphOvercast
8:51 PM19.0 °F1.9 °F47 %30.50 in10.0 miSE (130°)9.2 mphOvercast
9:51 PM19.9 °F1.9 °F46 %30.49 in10.0 miSE (130°)9.2 mphOvercast
10:51 PM19.9 °F3.0 °F48 %30.44 in10.0 miSE (130°)10.4 mphOvercast
11:51 PM19.9 °F3.9 °F50 %30.44 in10.0 miSE (140°)8.1 mphOvercast
Hourly data recorded from KMDW, located miles away from Bedford Park, Illinois







STORIES FROM OUR PARTNERS